Location: Bottenau
(48.5138°N, 8.0462°E)
Time: 04:53:12
(UTC+00:00)

Cosmos 1386 Rocket - Pass Details

Date: 18 April 2021
Orbit: 928 x 1007 km, 83.0° (Epoch: 09 May)

Event Time Altitude Azimuth Distance (km) Brightness Sun altitude
Rises 22:26:01 0° 349° (N) 3,622 8.7 -28.8°
Reaches altitude 10° 22:28:32 10° 347° (NNW) 2,665 7.7 -28.9°
Maximum altitude 22:34:34 72° 265° (W) 978 4.4 -29.2°
Enters shadow 22:34:38 72° 259° (W) 979 4.4 -29.2°
